Location: Proctor
(47.8934°N, 114.3048°W)
Time: 15:43:45
(UTC+00:00)

Courier 1B Rocket - Pass Details

Date: 20 June 2024
Orbit: 920 x 1201 km, 28.2° (Epoch: 16 July)

Event Time Altitude Azimuth Distance (km) Brightness Sun altitude
Rises 13:00:24 0° 235° (SW) 3,831 7.5 11.1°
Reaches altitude 10° 13:04:21 10° 214° (SW) 2,936 7.1 11.7°
Maximum altitude 13:08:17 15° 181° (S) 2,605 7.1 12.3°
Drops below altitude 10° 13:12:19 10° 148° (SSE) 3,041 7.8 12.9°
Sets 13:16:33 0° 128° (SE) 4,045 8.7 13.6°
